Time,TemperatureF,DewpointF,PressureIn,WindDirection,WindDirectionDegrees,WindSpeedMPH,WindSpeedGustMPH,Humidity,HourlyPrecipIn,Conditions,Clouds,dailyrainin,SoftwareType,DateUTC
2013-03-28 00:00:00,41.3,36.8,30.17,SW,215,0.0,0.0,84,0.00,,---,0.00,VWS V14.01,2013-03-28 04:00:00,
2013-03-28 00:30:00,39.8,36.2,30.16,SW,215,0.0,0.0,87,0.00,,---,0.00,VWS V14.01,2013-03-28 04:30:00,
2013-03-28 01:00:00,38.6,35.4,30.15,SW,215,0.0,0.0,88,0.00,,---,0.00,VWS V14.01,2013-03-28 05:00:00,
2013-03-28 01:30:00,37.5,34.6,30.16,SW,215,0.0,0.0,89,0.00,,---,0.00,VWS V14.01,2013-03-28 05:30:00,
2013-03-28 02:00:00,36.6,34.0,30.16,SW,215,0.0,0.0,90,0.00,,---,0.00,VWS V14.01,2013-03-28 06:00:00,
2013-03-28 02:30:00,35.8,33.4,30.15,SW,215,0.0,0.0,91,0.00,,---,0.00,VWS V14.01,2013-03-28 06:30:00,
2013-03-28 03:00:00,35.0,32.9,30.15,SW,215,0.0,0.0,92,0.00,,---,0.00,VWS V14.01,2013-03-28 07:00:00,
2013-03-28 03:30:00,34.4,32.3,30.14,SW,215,0.0,0.0,92,0.00,,---,0.00,VWS V14.01,2013-03-28 07:30:00,
2013-03-28 04:00:00,34.1,32.3,30.13,SW,215,0.0,0.0,93,0.00,,---,0.00,VWS V14.01,2013-03-28 08:00:00,
2013-03-28 04:30:00,33.7,31.9,30.13,SW,215,0.0,0.0,93,0.00,,---,0.00,VWS V14.01,2013-03-28 08:30:00,
2013-03-28 05:00:00,33.5,32.0,30.13,SW,215,0.0,0.0,94,0.00,,---,0.00,VWS V14.01,2013-03-28 09:00:00,
2013-03-28 05:30:00,33.1,31.6,30.13,SW,215,0.0,0.0,94,0.00,,---,0.00,VWS V14.01,2013-03-28 09:30:00,
2013-03-28 06:00:00,32.9,31.4,30.14,SW,215,0.0,0.0,94,0.00,,---,0.00,VWS V14.01,2013-03-28 10:00:00,
2013-03-28 06:30:00,32.5,31.0,30.15,SW,215,0.0,0.0,94,0.00,,---,0.00,VWS V14.01,2013-03-28 10:30:00,
2013-03-28 07:00:00,32.4,30.9,30.15,SW,215,0.0,0.0,94,0.00,,---,0.00,VWS V14.01,2013-03-28 11:00:00,
2013-03-28 07:30:00,32.2,30.9,30.15,SW,215,0.0,0.0,95,0.00,,---,0.00,VWS V14.01,2013-03-28 11:30:00,
2013-03-28 08:00:00,32.7,31.7,30.16,SW,215,0.0,0.0,96,0.00,,---,0.00,VWS V14.01,2013-03-28 12:00:00,
2013-03-28 08:03:00,32.8,31.8,30.16,SW,215,0.0,0.0,96,0.00,,---,0.00,VWS V14.01,2013-03-28 12:03:00,
2013-03-28 08:08:00,32.9,32.1,30.16,SW,215,0.0,0.0,97,0.00,,---,0.00,VWS V14.01,2013-03-28 12:08:00,
2013-03-28 08:13:00,33.2,32.4,30.16,SW,215,0.0,0.0,97,0.00,,---,0.00,VWS V14.01,2013-03-28 12:13:00,
2013-03-28 08:18:00,33.5,32.5,30.16,SW,215,0.0,0.0,96,0.00,,---,0.00,VWS V14.01,2013-03-28 12:18:00,
2013-03-28 08:23:00,33.8,32.8,30.16,SW,215,0.0,0.0,96,0.00,,---,0.00,VWS V14.01,2013-03-28 12:23:00,
2013-03-28 08:28:00,34.4,33.4,30.16,SW,215,0.0,0.0,96,0.00,,---,0.00,VWS V14.01,2013-03-28 12:28:00,
2013-03-28 08:30:00,34.6,33.6,30.16,SW,215,0.0,0.0,96,0.00,,---,0.00,VWS V14.01,2013-03-28 12:30:00,
2013-03-28 08:33:00,34.7,33.7,30.16,SW,215,0.0,0.0,96,0.00,,---,0.00,VWS V14.01,2013-03-28 12:33:00,
2013-03-28 08:38:00,35.2,34.2,30.16,SW,215,0.0,0.0,96,0.00,,---,0.00,VWS V14.01,2013-03-28 12:38:00,
2013-03-28 08:43:00,35.8,35.0,30.16,SW,215,0.0,0.0,97,0.00,,---,0.00,VWS V14.01,2013-03-28 12:43:00,
2013-03-28 08:48:00,36.3,35.5,30.17,SW,215,0.0,0.0,97,0.00,,---,0.00,VWS V14.01,2013-03-28 12:48:00,
2013-03-28 08:54:00,37.0,36.5,30.17,SW,215,0.0,0.0,98,0.00,,---,0.00,VWS V14.01,2013-03-28 12:54:00,
2013-03-28 08:59:00,37.9,37.4,30.17,SW,215,0.0,0.0,98,0.00,,---,0.00,VWS V14.01,2013-03-28 12:59:00,
2013-03-28 09:00:00,38.2,37.9,30.17,SW,215,0.0,0.0,99,0.00,,---,0.00,VWS V14.01,2013-03-28 13:00:00,
2013-03-28 09:04:00,39.1,38.8,30.17,SW,215,0.0,0.0,99,0.00,,---,0.00,VWS V14.01,2013-03-28 13:04:00,
2013-03-28 09:09:00,40.2,39.9,30.17,SW,215,0.0,0.0,99,0.00,,---,0.00,VWS V14.01,2013-03-28 13:09:00,
2013-03-28 09:14:00,41.5,41.2,30.17,SW,215,0.0,0.0,99,0.00,,---,0.00,VWS V14.01,2013-03-28 13:14:00,
2013-03-28 09:19:00,42.5,42.2,30.18,SW,215,0.0,0.0,99,0.00,,---,0.00,VWS V14.01,2013-03-28 13:19:00,
2013-03-28 09:24:00,43.3,43.0,30.18,SW,215,0.0,0.0,99,0.00,,---,0.00,VWS V14.01,2013-03-28 13:24:00,
2013-03-28 09:29:00,44.1,43.6,30.18,SW,215,0.0,0.0,98,0.00,,---,0.00,VWS V14.01,2013-03-28 13:29:00,
2013-03-28 09:30:00,44.2,43.7,30.18,SW,215,0.0,0.0,98,0.00,,---,0.00,VWS V14.01,2013-03-28 13:30:00,
2013-03-28 09:34:00,45.2,42.5,30.18,SW,226,0.0,0.0,90,0.00,,---,0.00,VWS V14.01,2013-03-28 13:34:00,
2013-03-28 09:39:00,47.0,38.1,30.18,WSW,239,0.0,2.0,71,0.00,,---,0.00,VWS V14.01,2013-03-28 13:39:00,
2013-03-28 09:44:00,48.9,37.7,30.18,WSW,239,0.0,2.0,65,0.00,,---,0.00,VWS V14.01,2013-03-28 13:44:00,
2013-03-28 09:49:00,51.0,35.9,30.18,WNW,295,0.0,2.0,56,0.00,,---,0.00,VWS V14.01,2013-03-28 13:49:00,
2013-03-28 09:54:00,52.3,34.7,30.18,NNE,20,0.0,2.0,51,0.00,,---,0.00,VWS V14.01,2013-03-28 13:54:00,
2013-03-28 10:00:00,53.1,35.5,30.19,North,11,0.0,2.0,51,0.00,,---,0.00,VWS V14.01,2013-03-28 14:00:00,
2013-03-28 10:05:00,53.8,35.1,30.19,NE,48,2.0,3.0,49,0.00,,---,0.00,VWS V14.01,2013-03-28 14:05:00,
2013-03-28 10:10:00,54.5,35.8,30.19,NNE,25,0.0,5.0,49,0.00,,---,0.00,VWS V14.01,2013-03-28 14:10:00,
2013-03-28 10:15:00,55.1,36.8,30.19,NNE,16,0.0,5.0,50,0.00,,---,0.00,VWS V14.01,2013-03-28 14:15:00,
2013-03-28 10:20:00,55.7,36.3,30.19,NNE,20,0.0,5.0,48,0.00,,---,0.00,VWS V14.01,2013-03-28 14:20:00,
2013-03-28 10:25:00,55.9,34.9,30.19,North,0,0.0,5.0,45,0.00,,---,0.00,VWS V14.01,2013-03-28 14:25:00,
2013-03-28 10:30:00,56.6,36.6,30.19,North,356,0.0,0.0,47,0.00,,---,0.00,VWS V14.01,2013-03-28 14:30:00,
2013-03-28 10:35:00,56.9,34.7,30.19,North,356,0.0,0.0,43,0.00,,---,0.00,VWS V14.01,2013-03-28 14:35:00,
2013-03-28 10:40:00,57.0,34.2,30.19,NE,56,0.0,3.0,42,0.00,,---,0.00,VWS V14.01,2013-03-28 14:40:00,
2013-03-28 10:45:00,57.3,33.8,30.20,NNE,21,1.0,3.0,41,0.00,,---,0.00,VWS V14.01,2013-03-28 14:45:00,
2013-03-28 10:51:00,57.6,33.5,30.20,NNW,328,0.0,3.0,40,0.00,,---,0.00,VWS V14.01,2013-03-28 14:51:00,
2013-03-28 10:56:00,57.6,34.1,30.20,NE,34,0.0,3.0,41,0.00,,---,0.00,VWS V14.01,2013-03-28 14:56:00,
2013-03-28 11:00:00,58.0,34.5,30.20,NW,322,0.0,6.0,41,0.00,,---,0.00,VWS V14.01,2013-03-28 15:00:00,
2013-03-28 11:01:00,58.0,35.1,30.20,NW,322,0.0,0.0,42,0.00,,---,0.00,VWS V14.01,2013-03-28 15:01:00,
2013-03-28 11:06:00,58.6,35.0,30.20,NNE,20,0.0,1.0,41,0.00,,---,0.00,VWS V14.01,2013-03-28 15:06:00,
2013-03-28 11:11:00,59.3,35.6,30.20,NE,37,0.0,1.0,41,0.00,,---,0.00,VWS V14.01,2013-03-28 15:11:00,
2013-03-28 11:16:00,59.2,33.6,30.20,NE,51,0.0,3.0,38,0.00,,---,0.00,VWS V14.01,2013-03-28 15:16:00,
2013-03-28 11:21:00,59.2,32.3,30.20,NNW,328,1.0,3.0,36,0.00,,---,0.00,VWS V14.01,2013-03-28 15:21:00,
2013-03-28 11:26:00,59.6,33.3,30.20,WNW,299,0.0,3.0,37,0.00,,---,0.00,VWS V14.01,2013-03-28 15:26:00,
2013-03-28 11:30:00,59.9,33.6,30.19,NNE,21,0.0,3.0,37,0.00,,---,0.00,VWS V14.01,2013-03-28 15:30:00,
2013-03-28 11:31:00,59.9,34.9,30.19,WNW,296,0.0,0.0,39,0.00,,---,0.00,VWS V14.01,2013-03-28 15:31:00,
2013-03-28 11:37:00,60.5,33.4,30.19,WNW,299,0.0,0.0,36,0.00,,---,0.00,VWS V14.01,2013-03-28 15:37:00,
2013-03-28 11:42:00,61.0,33.2,30.19,WNW,299,0.0,0.0,35,0.00,,---,0.00,VWS V14.01,2013-03-28 15:42:00,
2013-03-28 11:47:00,60.9,33.1,30.18,NE,56,0.0,5.0,35,0.00,,---,0.00,VWS V14.01,2013-03-28 15:47:00,
2013-03-28 11:52:00,61.3,32.7,30.18,NE,37,0.0,5.0,34,0.00,,---,0.00,VWS V14.01,2013-03-28 15:52:00,
2013-03-28 11:57:00,61.6,33.0,30.18,NNE,21,0.0,5.0,34,0.00,,---,0.00,VWS V14.01,2013-03-28 15:57:00,
2013-03-28 12:00:00,61.8,33.2,30.18,NE,45,0.0,5.0,34,0.00,,---,0.00,VWS V14.01,2013-03-28 16:00:00,
2013-03-28 12:30:00,64.0,32.8,30.18,West,270,0.0,7.0,31,0.00,,---,0.00,VWS V14.01,2013-03-28 16:30:00,
2013-03-28 13:00:00,65.6,31.6,30.17,WSW,248,0.0,8.0,28,0.00,,---,0.00,VWS V14.01,2013-03-28 17:00:00,
2013-03-28 13:30:00,65.2,29.5,30.16,NE,45,1.0,6.0,26,0.00,,---,0.00,VWS V14.01,2013-03-28 17:30:00,
2013-03-28 14:00:00,66.8,28.9,30.15,ENE,68,0.0,6.0,24,0.00,,---,0.00,VWS V14.01,2013-03-28 18:00:00,
2013-03-28 14:30:00,67.6,29.6,30.13,NE,45,1.0,6.0,24,0.00,,---,0.00,VWS V14.01,2013-03-28 18:30:00,
2013-03-28 15:27:00,68.8,28.4,30.10,WNW,289,0.0,1.0,22,0.00,,---,0.00,VWS V14.01,2013-03-28 19:27:00,
2013-03-28 15:30:00,68.9,28.5,30.10,WNW,289,0.0,1.0,22,0.00,,---,0.00,VWS V14.01,2013-03-28 19:30:00,
2013-03-28 15:32:00,69.3,28.9,30.10,East,89,0.0,0.0,22,0.00,,---,0.00,VWS V14.01,2013-03-28 19:32:00,
2013-03-28 15:38:00,69.8,30.4,30.10,NW,323,0.0,0.0,23,0.00,,---,0.00,VWS V14.01,2013-03-28 19:38:00,
2013-03-28 15:43:00,69.8,29.3,30.10,WNW,292,0.0,1.0,22,0.00,,---,0.00,VWS V14.01,2013-03-28 19:43:00,
2013-03-28 15:48:00,70.4,30.9,30.09,WSW,256,0.0,1.0,23,0.00,,---,0.00,VWS V14.01,2013-03-28 19:48:00,
2013-03-28 15:53:00,70.4,28.6,30.09,SW,232,0.0,7.0,21,0.00,,---,0.00,VWS V14.01,2013-03-28 19:53:00,
2013-03-28 15:58:00,70.9,30.2,30.09,SW,232,0.0,0.0,22,0.00,,---,0.00,VWS V14.01,2013-03-28 19:58:00,
2013-03-28 16:00:00,71.1,30.4,30.08,WSW,239,0.0,3.0,22,0.00,,---,0.00,VWS V14.01,2013-03-28 20:00:00,
2013-03-28 16:03:00,71.5,30.7,30.08,WSW,237,0.0,2.0,22,0.00,,---,0.00,VWS V14.01,2013-03-28 20:03:00,
2013-03-28 16:08:00,70.9,29.0,30.08,NE,56,0.0,2.0,21,0.00,,---,0.00,VWS V14.01,2013-03-28 20:08:00,
2013-03-28 16:13:00,70.3,28.5,30.08,NE,41,0.0,2.0,21,0.00,,---,0.00,VWS V14.01,2013-03-28 20:13:00,
2013-03-28 16:18:00,70.4,30.9,30.08,WNW,284,0.0,5.0,23,0.00,,---,0.00,VWS V14.01,2013-03-28 20:18:00,
2013-03-28 16:23:00,70.4,29.8,30.08,WNW,298,0.0,5.0,22,0.00,,---,0.00,VWS V14.01,2013-03-28 20:23:00,
2013-03-28 16:28:00,70.8,31.2,30.08,SW,224,0.0,5.0,23,0.00,,---,0.00,VWS V14.01,2013-03-28 20:28:00,
2013-03-28 16:30:00,70.8,30.1,30.07,SW,233,0.0,5.0,22,0.00,,---,0.00,VWS V14.01,2013-03-28 20:30:00,
2013-03-28 16:33:00,70.9,30.2,30.07,ENE,58,0.0,0.0,22,0.00,,---,0.00,VWS V14.01,2013-03-28 20:33:00,
2013-03-28 16:38:00,70.6,31.0,30.07,NW,318,0.0,0.0,23,0.00,,---,0.00,VWS V14.01,2013-03-28 20:38:00,
2013-03-28 16:44:00,71.1,29.2,30.07,West,274,0.0,3.0,21,0.00,,---,0.00,VWS V14.01,2013-03-28 20:44:00,
2013-03-28 16:49:00,71.1,31.5,30.07,NNW,343,0.0,3.0,23,0.00,,---,0.00,VWS V14.01,2013-03-28 20:49:00,
2013-03-28 16:54:00,70.9,30.2,30.07,NNW,339,0.0,3.0,22,0.00,,---,0.00,VWS V14.01,2013-03-28 20:54:00,
2013-03-28 16:59:00,71.3,30.5,30.07,WSW,237,0.0,3.0,22,0.00,,---,0.00,VWS V14.01,2013-03-28 20:59:00,
2013-03-28 17:00:00,71.3,29.4,30.07,WSW,237,0.0,3.0,21,0.00,,---,0.00,VWS V14.01,2013-03-28 21:00:00,
2013-03-28 17:04:00,71.5,30.7,30.07,WNW,301,0.0,1.0,22,0.00,,---,0.00,VWS V14.01,2013-03-28 21:04:00,
2013-03-28 17:09:00,71.3,29.4,30.07,NE,54,0.0,1.0,21,0.00,,---,0.00,VWS V14.01,2013-03-28 21:09:00,
2013-03-28 17:14:00,71.3,30.5,30.07,North,353,0.0,1.0,22,0.00,,---,0.00,VWS V14.01,2013-03-28 21:14:00,
2013-03-28 17:19:00,71.5,31.8,30.07,NNE,13,0.0,1.0,23,0.00,,---,0.00,VWS V14.01,2013-03-28 21:19:00,
2013-03-28 17:24:00,71.6,30.8,30.07,NNE,14,0.0,1.0,22,0.00,,---,0.00,VWS V14.01,2013-03-28 21:24:00,
2013-03-28 17:29:00,71.8,32.0,30.07,NNE,14,0.0,1.0,23,0.00,,---,0.00,VWS V14.01,2013-03-28 21:29:00,
2013-03-28 17:30:00,71.8,29.8,30.07,NNE,14,0.0,1.0,21,0.00,,---,0.00,VWS V14.01,2013-03-28 21:30:00,
2013-03-28 17:34:00,71.5,30.7,30.07,NNE,14,0.0,0.0,22,0.00,,---,0.00,VWS V14.01,2013-03-28 21:34:00,
2013-03-28 17:39:00,71.1,29.2,30.07,NNE,14,0.0,0.0,21,0.00,,---,0.00,VWS V14.01,2013-03-28 21:39:00,
2013-03-28 17:45:00,70.8,30.1,30.07,NW,323,0.0,3.0,22,0.00,,---,0.00,VWS V14.01,2013-03-28 21:45:00,
2013-03-28 17:50:00,70.9,30.2,30.07,ENE,75,0.0,3.0,22,0.00,,---,0.00,VWS V14.01,2013-03-28 21:50:00,
2013-03-28 17:55:00,71.1,31.5,30.07,SW,232,0.0,8.0,23,0.00,,---,0.00,VWS V14.01,2013-03-28 21:55:00,
2013-03-28 18:00:00,71.5,31.8,30.07,SW,232,0.0,8.0,23,0.00,,---,0.00,VWS V14.01,2013-03-28 22:00:00,
2013-03-28 18:05:00,71.6,31.9,30.07,SW,234,0.0,0.0,23,0.00,,---,0.00,VWS V14.01,2013-03-28 22:05:00,
2013-03-28 18:10:00,71.5,33.9,30.07,NNW,339,0.0,0.0,25,0.00,,---,0.00,VWS V14.01,2013-03-28 22:10:00,
2013-03-28 18:15:00,71.3,31.6,30.08,NNW,340,0.0,0.0,23,0.00,,---,0.00,VWS V14.01,2013-03-28 22:15:00,
2013-03-28 18:20:00,70.9,32.3,30.08,NNW,340,0.0,0.0,24,0.00,,---,0.00,VWS V14.01,2013-03-28 22:20:00,
2013-03-28 18:26:00,70.8,33.3,30.08,NNW,340,0.0,0.0,25,0.00,,---,0.00,VWS V14.01,2013-03-28 22:26:00,
2013-03-28 18:30:00,70.6,32.1,30.08,WNW,296,0.0,0.0,24,0.00,,---,0.00,VWS V14.01,2013-03-28 22:30:00,
2013-03-28 18:31:00,70.4,31.9,30.08,WNW,296,0.0,0.0,24,0.00,,---,0.00,VWS V14.01,2013-03-28 22:31:00,
2013-03-28 18:36:00,70.1,32.7,30.08,WNW,296,0.0,0.0,25,0.00,,---,0.00,VWS V14.01,2013-03-28 22:36:00,
2013-03-28 18:41:00,69.6,31.2,30.08,ENE,61,0.0,1.0,24,0.00,,---,0.00,VWS V14.01,2013-03-28 22:41:00,
2013-03-28 18:46:00,69.3,33.0,30.08,ENE,61,0.0,1.0,26,0.00,,---,0.00,VWS V14.01,2013-03-28 22:46:00,
2013-03-28 18:51:00,68.9,34.5,30.08,ENE,61,0.0,1.0,28,0.00,,---,0.00,VWS V14.01,2013-03-28 22:51:00,
2013-03-28 18:56:00,68.6,34.2,30.08,ENE,61,0.0,1.0,28,0.00,,---,0.00,VWS V14.01,2013-03-28 22:56:00,
2013-03-28 19:00:00,68.1,38.7,30.09,ENE,61,0.0,1.0,34,0.00,,---,0.00,VWS V14.01,2013-03-28 23:00:00,
2013-03-28 19:02:00,67.9,37.8,30.09,ENE,61,0.0,0.0,33,0.00,,---,0.00,VWS V14.01,2013-03-28 23:02:00,
2013-03-28 19:07:00,67.4,38.1,30.09,ENE,61,0.0,0.0,34,0.00,,---,0.00,VWS V14.01,2013-03-28 23:07:00,
2013-03-28 19:12:00,66.9,39.8,30.09,ENE,61,0.0,0.0,37,0.00,,---,0.00,VWS V14.01,2013-03-28 23:12:00,
2013-03-28 19:17:00,66.4,40.0,30.09,ENE,61,0.0,0.0,38,0.00,,---,0.00,VWS V14.01,2013-03-28 23:17:00,
2013-03-28 19:22:00,65.5,38.6,30.09,ENE,61,0.0,0.0,37,0.00,,---,0.00,VWS V14.01,2013-03-28 23:22:00,
2013-03-28 19:27:00,64.8,42.4,30.09,ENE,61,0.0,0.0,44,0.00,,---,0.00,VWS V14.01,2013-03-28 23:27:00,
2013-03-28 19:30:00,64.3,42.5,30.10,ENE,61,0.0,0.0,45,0.00,,---,0.00,VWS V14.01,2013-03-28 23:30:00,
2013-03-28 19:32:00,64.0,41.7,30.10,ENE,61,0.0,0.0,44,0.00,,---,0.00,VWS V14.01,2013-03-28 23:32:00,
2013-03-28 19:37:00,63.2,42.7,30.10,ENE,61,0.0,0.0,47,0.00,,---,0.00,VWS V14.01,2013-03-28 23:37:00,
2013-03-28 19:42:00,62.3,42.4,30.10,ENE,61,0.0,0.0,48,0.00,,---,0.00,VWS V14.01,2013-03-28 23:42:00,
2013-03-28 19:47:00,61.6,40.6,30.10,ENE,61,0.0,0.0,46,0.00,,---,0.00,VWS V14.01,2013-03-28 23:47:00,
2013-03-28 19:52:00,61.0,41.2,30.10,ENE,61,0.0,0.0,48,0.00,,---,0.00,VWS V14.01,2013-03-28 23:52:00,
2013-03-28 19:57:00,60.1,41.9,30.10,ENE,61,0.0,0.0,51,0.00,,---,0.00,VWS V14.01,2013-03-28 23:57:00,
2013-03-28 20:00:00,59.6,42.0,30.11,ENE,61,0.0,0.0,52,0.00,,---,0.00,VWS V14.01,2013-03-29 00:00:00,
2013-03-28 20:02:00,59.3,41.7,30.11,ENE,61,0.0,0.0,52,0.00,,---,0.00,VWS V14.01,2013-03-29 00:02:00,
2013-03-28 20:07:00,58.6,41.5,30.11,ENE,61,0.0,0.0,53,0.00,,---,0.00,VWS V14.01,2013-03-29 00:07:00,
2013-03-28 20:12:00,57.6,41.1,30.11,ENE,61,0.0,0.0,54,0.00,,---,0.00,VWS V14.01,2013-03-29 00:12:00,
2013-03-28 20:18:00,57.0,41.0,30.11,NNW,342,0.0,2.0,55,0.00,,---,0.00,VWS V14.01,2013-03-29 00:18:00,
2013-03-28 20:23:00,57.0,41.5,30.11,SE,127,0.0,2.0,56,0.00,,---,0.00,VWS V14.01,2013-03-29 00:23:00,
2013-03-28 20:28:00,57.0,42.4,30.11,SE,127,0.0,2.0,58,0.00,,---,0.00,VWS V14.01,2013-03-29 00:28:00,
2013-03-28 20:30:00,56.9,42.3,30.12,SE,127,0.0,2.0,58,0.00,,---,0.00,VWS V14.01,2013-03-29 00:30:00,
2013-03-28 20:33:00,56.7,42.1,30.12,SE,127,0.0,0.0,58,0.00,,---,0.00,VWS V14.01,2013-03-29 00:33:00,
2013-03-28 20:38:00,56.5,42.4,30.12,SE,127,0.0,0.0,59,0.00,,---,0.00,VWS V14.01,2013-03-29 00:38:00,
2013-03-28 20:43:00,56.3,42.2,30.12,SE,127,0.0,0.0,59,0.00,,---,0.00,VWS V14.01,2013-03-29 00:43:00,
2013-03-28 20:48:00,56.0,41.9,30.12,SE,127,0.0,0.0,59,0.00,,---,0.00,VWS V14.01,2013-03-29 00:48:00,
2013-03-28 20:53:00,55.7,41.6,30.12,SE,127,0.0,0.0,59,0.00,,---,0.00,VWS V14.01,2013-03-29 00:53:00,
2013-03-28 20:58:00,55.4,42.2,30.12,SE,127,0.0,0.0,61,0.00,,---,0.00,VWS V14.01,2013-03-29 00:58:00,
2013-03-28 21:00:00,55.4,42.6,30.13,SE,127,0.0,0.0,62,0.00,,---,0.00,VWS V14.01,2013-03-29 01:00:00,
2013-03-28 21:03:00,55.1,42.3,30.13,SE,127,0.0,0.0,62,0.00,,---,0.00,VWS V14.01,2013-03-29 01:03:00,
2013-03-28 21:08:00,54.8,42.5,30.13,SE,127,0.0,0.0,63,0.00,,---,0.00,VWS V14.01,2013-03-29 01:08:00,
2013-03-28 21:13:00,54.5,42.2,30.13,SE,127,0.0,0.0,63,0.00,,---,0.00,VWS V14.01,2013-03-29 01:13:00,
2013-03-28 21:18:00,54.4,42.5,30.14,SE,127,0.0,0.0,64,0.00,,---,0.00,VWS V14.01,2013-03-29 01:18:00,
2013-03-28 21:23:00,54.1,42.6,30.14,SE,127,0.0,0.0,65,0.00,,---,0.00,VWS V14.01,2013-03-29 01:23:00,
2013-03-28 21:28:00,53.8,42.7,30.14,SE,127,0.0,0.0,66,0.00,,---,0.00,VWS V14.01,2013-03-29 01:28:00,
2013-03-28 21:30:00,53.8,42.7,30.14,SE,127,0.0,0.0,66,0.00,,---,0.00,VWS V14.01,2013-03-29 01:30:00,
2013-03-28 21:33:00,53.5,42.4,30.14,SE,127,0.0,0.0,66,0.00,,---,0.00,VWS V14.01,2013-03-29 01:33:00,
2013-03-28 21:38:00,53.3,42.6,30.14,SE,127,0.0,0.0,67,0.00,,---,0.00,VWS V14.01,2013-03-29 01:38:00,
2013-03-28 21:43:00,53.2,42.9,30.14,SE,127,0.0,0.0,68,0.00,,---,0.00,VWS V14.01,2013-03-29 01:43:00,
2013-03-28 21:48:00,52.9,42.6,30.15,SE,127,0.0,0.0,68,0.00,,---,0.00,VWS V14.01,2013-03-29 01:48:00,
2013-03-28 21:53:00,52.6,42.7,30.15,SE,127,0.0,0.0,69,0.00,,---,0.00,VWS V14.01,2013-03-29 01:53:00,
2013-03-28 21:59:00,52.3,43.2,30.15,SE,127,0.0,0.0,71,0.00,,---,0.00,VWS V14.01,2013-03-29 01:59:00,
2013-03-28 22:00:00,52.2,42.7,30.16,SE,127,0.0,0.0,70,0.00,,---,0.00,VWS V14.01,2013-03-29 02:00:00,
2013-03-28 22:04:00,52.0,42.9,30.16,SE,127,0.0,0.0,71,0.00,,---,0.00,VWS V14.01,2013-03-29 02:04:00,
2013-03-28 22:09:00,51.7,42.6,30.16,SE,127,0.0,0.0,71,0.00,,---,0.00,VWS V14.01,2013-03-29 02:09:00,
2013-03-28 22:14:00,51.4,42.7,30.16,SE,127,0.0,0.0,72,0.00,,---,0.00,VWS V14.01,2013-03-29 02:14:00,
2013-03-28 22:19:00,51.1,42.8,30.17,SE,127,0.0,0.0,73,0.00,,---,0.00,VWS V14.01,2013-03-29 02:19:00,
2013-03-28 22:24:00,51.0,43.0,30.17,SE,127,0.0,0.0,74,0.00,,---,0.00,VWS V14.01,2013-03-29 02:24:00,
2013-03-28 22:29:00,50.8,43.2,30.17,SE,127,0.0,0.0,75,0.00,,---,0.00,VWS V14.01,2013-03-29 02:29:00,
2013-03-28 22:30:00,50.7,43.1,30.17,SE,127,0.0,0.0,75,0.00,,---,0.00,VWS V14.01,2013-03-29 02:30:00,
2013-03-28 22:34:00,50.5,42.9,30.17,SE,127,0.0,0.0,75,0.00,,---,0.00,VWS V14.01,2013-03-29 02:34:00,
2013-03-28 22:39:00,50.2,42.9,30.17,SE,127,0.0,0.0,76,0.00,,---,0.00,VWS V14.01,2013-03-29 02:39:00,
2013-03-28 22:44:00,49.9,43.0,30.17,SE,127,0.0,0.0,77,0.00,,---,0.00,VWS V14.01,2013-03-29 02:44:00,
2013-03-28 22:49:00,49.5,42.6,30.17,SE,127,0.0,0.0,77,0.00,,---,0.00,VWS V14.01,2013-03-29 02:49:00,
2013-03-28 22:54:00,49.2,42.6,30.17,SE,127,0.0,0.0,78,0.00,,---,0.00,VWS V14.01,2013-03-29 02:54:00,
2013-03-28 22:59:00,48.8,42.9,30.17,SE,127,0.0,0.0,80,0.00,,---,0.00,VWS V14.01,2013-03-29 02:59:00,
2013-03-28 23:00:00,48.8,42.9,30.17,SE,127,0.0,0.0,80,0.00,,---,0.00,VWS V14.01,2013-03-29 03:00:00,
2013-03-28 23:05:00,48.5,42.6,30.17,SE,127,0.0,0.0,80,0.00,,---,0.00,VWS V14.01,2013-03-29 03:05:00,
2013-03-28 23:10:00,48.3,42.4,30.17,SE,127,0.0,0.0,80,0.00,,---,0.00,VWS V14.01,2013-03-29 03:10:00,
2013-03-28 23:15:00,47.9,42.7,30.18,SE,127,0.0,0.0,82,0.00,,---,0.00,VWS V14.01,2013-03-29 03:15:00,
2013-03-28 23:20:00,47.7,42.5,30.18,SE,127,0.0,0.0,82,0.00,,---,0.00,VWS V14.01,2013-03-29 03:20:00,
2013-03-28 23:25:00,47.6,42.7,30.18,SE,127,0.0,0.0,83,0.00,,---,0.00,VWS V14.01,2013-03-29 03:25:00,
2013-03-28 23:30:00,47.3,42.4,30.18,SE,127,0.0,0.0,83,0.00,,---,0.00,VWS V14.01,2013-03-29 03:30:00,
2013-03-28 23:35:00,47.1,42.2,30.18,SE,127,0.0,0.0,83,0.00,,---,0.00,VWS V14.01,2013-03-29 03:35:00,
2013-03-28 23:40:00,46.8,41.9,30.18,SE,127,0.0,0.0,83,0.00,,---,0.00,VWS V14.01,2013-03-29 03:40:00,
2013-03-28 23:45:00,46.5,41.9,30.18,SE,127,0.0,0.0,84,0.00,,---,0.00,VWS V14.01,2013-03-29 03:45:00,
2013-03-28 23:50:00,46.4,41.8,30.18,SE,127,0.0,0.0,84,0.00,,---,0.00,VWS V14.01,2013-03-29 03:50:00,
2013-03-28 23:55:00,46.1,41.5,30.18,SE,127,0.0,0.0,84,0.00,,---,0.00,VWS V14.01,2013-03-29 03:55:00,